1315526429456,48.6208
1315526489456,48.7108
1315526549456,48.6616
1315526609456,48.6407
1315526669456,48.7008
1315526729456,48.6869
1315526789456,48.7122
1315526849456,48.6846
1315526909456,48.5758
1315526969456,48.7645
1315527029456,48.7609
1315527089456,48.6867
1315527149456,48.8271
1315527209456,48.5961
1315527269456,48.6367
1315527329456,48.6718
1315527389456,48.5985
1315527449456,48.6488
1315527509456,48.5903
1315527569456,48.5388
1315527629456,48.5743
1315527689456,48.7320
1315527749456,48.6053
1315527809456,48.6267
1315527869456,48.6906
1315527929456,48.7061
1315527989456,48.8597
1315528049456,48.8185
1315528109456,48.6803
1315528169456,48.7347
1315528229456,48.5835
1315528289456,48.5721
1315528349456,48.4603
1315528409456,48.6179
1315528469456,48.5569
1315528529456,48.5346
1315528589456,48.5708
1315528649456,48.5945
1315528709456,48.6115
1315528769456,48.4216
1315528829456,48.4785
1315528889456,48.5158
1315528949456,48.6191
1315529009456,48.5577
1315529069456,48.5501
1315529129456,48.5569
1315529189456,48.4575
1315529249456,48.4781
1315529309456,48.5224
1315529369456,48.6202
1315529429456,48.5780
1315529489456,48.4704
1315529549456,48.5843
1315529609456,48.6349
1315529669456,48.5054
1315529729456,48.5965
1315529789456,48.6069
1315529849456,48.5632
1315529909456,48.6246
1315529969456,48.6647
1315530029466,48.5819
1315530089466,48.6474
1315530149466,48.7059
1315530209466,48.7293
1315530269466,48.5548
1315530329466,48.4969
1315530389466,48.6754
1315530449466,48.4503
1315530509466,48.7004
1315530569466,48.5693
1315530629466,48.7521
1315530689466,48.6971
1315530749466,48.5045
1315530809466,48.4385
1315530869466,48.5900
1315530929466,48.5246
1315530989466,48.6512
1315531049466,49.0231
1315531109466,48.5408
1315531169466,48.6358
1315531229466,48.5700
1315531289466,48.5848
1315531349466,48.6817
1315531409466,48.5230
1315531469466,48.4222
1315531529466,48.4830
1315531589466,48.6458
1315531649466,48.4831
1315531709466,48.5438
1315531769466,48.4636
1315531829466,48.5891
1315531889466,48.5743
1315531949466,48.4556
1315532009466,48.3741
1315532069466,48.4718
1315532129466,48.4893
1315532189466,48.4726
1315532249466,48.3495
1315532309466,48.4649
1315532369466,48.4396
1315532429466,48.4024
1315532489466,48.4590
1315532549466,48.3547
1315532609466,48.3151
1315532669466,48.4387
1315532729466,48.4562
1315532789466,48.3154
1315532849466,48.6195
1315532909466,48.4455
1315532969466,48.5990
1315533029466,48.4337
1315533089466,48.3101
1315533149466,48.3367
1315533209466,48.3281
1315533269466,48.3095
1315533329466,48.2578
1315533389466,48.3216
1315533449466,48.4457
1315533509466,48.3659
1315533569466,48.4202
1315533629476,48.5540
1315533689476,48.4086
1315533749476,48.4637
1315533809476,48.5340
1315533869476,48.6267
1315533929476,48.3985
1315533989476,48.4872
1315534049476,48.5503
1315534109476,48.4677
1315534169476,48.4509
1315534229476,48.3811
1315534289476,48.4730
1315534349476,48.3601
1315534409476,48.4509
1315534469476,48.3561
1315534529476,48.4305
1315534589476,48.3402
1315534649476,48.4615
1315534709476,48.4343
1315534769476,48.3423
1315534829476,48.4822
1315534889476,48.4513
1315534949476,48.1706
1315535009476,48.3246
1315535069476,48.4219
1315535129476,48.2809
1315535189476,48.3519
1315535249476,48.2838
1315535309476,48.2846
1315535369476,48.3779
1315535429476,48.3587
1315535489476,48.4054
1315535549476,48.3902
1315535609476,48.4727
1315535669476,48.5430
1315535729476,48.7061
1315535789476,48.5265
1315535849476,48.5827
1315535909476,48.5141
1315535969476,48.5189
1315536029476,48.5050
1315536089476,48.6050
1315536149476,48.4975
1315536209476,48.6264
1315536269476,48.4970
1315536329476,48.5172
1315536389476,48.5184
1315536449476,48.5008
1315536509476,48.4967
1315536569476,48.5326
1315536629476,48.4514
1315536689476,48.3718
1315536749476,48.4169
1315536809476,48.5036
1315536869476,48.4892
1315536929476,48.3482
1315536989476,48.5036
1315537049476,48.2486
1315537109476,48.4558
1315537169476,48.4482
1315537229486,48.4324
1315537289486,48.5907
1315537349486,48.5466
1315537409486,48.5744
1315537469486,48.3701
1315537529486,48.3576
1315537589486,48.4974
1315537649486,48.5270
1315537709486,48.4524
1315537769486,48.4333
1315537829486,48.6293
1315537889486,48.6954
1315537949486,48.5095
1315538009486,48.6035
1315538069486,48.5650
1315538129486,48.5099
1315538189486,48.5669
1315538249486,48.4643
1315538309486,48.4664
1315538369486,48.5944
1315538429486,48.7366
1315538489486,48.5982
1315538549486,48.4368
1315538609486,48.4825
1315538669486,48.6267
1315538729486,48.5703
1315538789486,48.5655
1315538849486,48.5553
1315538909486,48.7066
1315538969486,48.5238
1315539029486,48.5033
1315539089486,48.5525
1315539149486,48.7492
1315539209486,48.6787
1315539269486,48.7153
1315539329486,48.7930
1315539389486,48.6664
1315539449486,48.6757
1315539509486,48.7264
1315539569486,48.7604
1315539629486,48.8928
1315539689486,48.9553
1315539749486,48.7091
1315539809486,48.7305
1315539869486,48.8139
1315539929486,48.7285
1315539989486,48.6517
1315540049486,48.6404
1315540109486,48.7704
1315540169486,48.7441
1315540229486,48.8157
1315540289486,48.7182
1315540349486,48.8213
1315540409486,48.6888
1315540469486,48.9478
1315540529486,48.8776
1315540589486,48.8995
1315540649486,48.8925
1315540709486,48.9898
1315540769486,48.9266
1315540829495,48.8470
1315540889495,48.8411
1315540949495,48.9653
1315541009495,49.1057
1315541069495,48.8629
1315541129495,49.0824
1315541189495,48.8616
1315541249495,48.8548
1315541309495,48.8682
1315541369495,48.8539
1315541429495,48.9746
1315541489495,48.8377
1315541549495,48.9060
1315541609495,49.0806
1315541669495,49.0143
1315541729495,49.0861
1315541789495,48.9703
1315541849495,49.0190
1315541909495,49.0382
1315541969495,48.9983
1315542029495,48.9798
1315542089495,48.8956
1315542149495,49.0114
1315542209495,48.9635
1315542269495,48.9623
1315542329495,49.0217
1315542389495,48.9555
1315542449495,48.9923
1315542509495,49.1029
1315542569495,49.1165
1315542629495,48.9362
1315542689495,49.0868
1315542749495,49.0240
1315542809495,48.9670
1315542869495,49.0519
1315542929495,49.1433
1315542989495,48.9868
1315543049495,49.0716
1315543109495,49.0952
1315543169495,49.0218
1315543229495,49.0880
1315543289495,49.0477
1315543349495,49.0365
1315543409495,49.0471
1315543469495,48.9574
1315543529495,49.0925
1315543589495,49.0394
1315543649495,48.9989
1315543709495,49.0232
1315543769495,48.9172
1315543829495,49.1020
1315543889495,48.9597
1315543949495,49.0115
1315544009495,48.9554
1315544069495,48.9129
1315544129495,48.9946
1315544189495,48.9850
1315544249495,48.9982
1315544309495,49.1284
1315544369495,48.9635
1315544429505,48.9578
1315544489505,49.1533
1315544549505,49.1247
1315544609505,49.0032
1315544669505,48.8948
1315544729505,48.9165
1315544789505,48.9173
1315544849505,49.1919
1315544909505,49.2526
1315544969505,49.0496
1315545029505,49.1579
1315545089505,49.1473
1315545149505,49.0949
1315545209505,49.0899
1315545269505,49.1376
1315545329505,49.1663
1315545389505,49.0379
1315545449505,49.1035
1315545509505,49.0370
1315545569505,49.1806
1315545629505,49.1876
1315545689505,49.2030
1315545749505,49.0636
1315545809505,49.1662
1315545869505,49.1578
1315545929505,48.9553
1315545989505,49.0667
1315546049505,49.3105
1315546109505,49.0970
1315546169505,49.8107
1315546229505,49.1315
1315546289505,49.1031
1315546349505,49.2444
1315546409505,49.2598
1315546469505,49.0012
1315546529505,49.0559
1315546589505,49.0321
1315546649505,49.1684
1315546709505,49.1215
1315546769505,49.0772
1315546829505,49.1005
1315546889505,49.1275
1315546949505,48.8997
1315547009505,49.1644
1315547069505,49.0045
1315547129505,49.1568
1315547189505,49.1480
1315547249505,49.1140
1315547309505,49.1166
1315547369505,49.0945
1315547429505,49.1967
1315547489505,49.1681
1315547549505,49.0725
1315547609505,49.1165
1315547669505,49.0632
1315547729505,49.1834
1315547789505,48.9858
1315547849505,49.0979
1315547909505,49.1336
1315547969505,49.1315
1315548029515,49.1281
1315548089515,49.0855
1315548149515,48.9999
1315548209515,49.1375
1315548269515,49.1861
1315548329515,49.4522
1315548389515,49.4162
1315548449515,49.3214
1315548509515,49.4840
1315548569515,49.5906
1315548629515,49.6449
1315548689515,49.8588
1315548749515,50.0026
1315548809515,50.2435
1315548869515,49.9965
1315548929515,50.0865
1315548989515,50.2690
1315549049515,50.1507
1315549109515,49.9936
1315549169515,49.9389
1315549229515,49.8750
1315549289515,49.6161
1315549349515,49.4258
1315549409515,49.2922
1315549469515,49.4510
1315549529515,49.3997
1315549589515,49.2861
1315549649515,49.1900
1315549709515,49.1888
1315549769515,49.2233
1315549829515,49.3972
1315549889515,49.3632
1315549949515,49.1657
1315550009515,49.1042
1315550069515,49.1915
1315550129515,48.9897
1315550189515,49.0472
1315550249515,49.0280
1315550309515,49.0541
1315550369515,49.1107
1315550429515,49.0807
1315550489515,49.1451
1315550549515,49.0317
1315550609515,48.9685
1315550669515,48.9811
1315550729515,49.1298
1315550789515,48.9228
1315550849515,49.0079
1315550909515,48.9416
1315550969515,49.0460
1315551029515,49.0387
1315551089515,48.9565
1315551149515,49.0316
1315551209515,48.9193
1315551269515,49.0566
1315551329515,48.8941
1315551389515,49.0307
1315551449515,48.9639
1315551509515,49.1999
1315551569515,48.9741
1315551629525,49.0610
1315551689525,49.0614
1315551749525,48.8240
1315551809525,48.9321
1315551869525,48.9978
1315551929525,49.0047
1315551989525,48.9610
1315552049525,48.9072
1315552109525,49.0115
1315552169525,48.7805
1315552229525,48.8751
1315552289525,49.1382
1315552349525,49.0748
1315552409525,48.9552
1315552469525,49.1912
1315552529525,48.8993
1315552589525,49.0550
1315552649525,49.0284
1315552709525,49.1535
1315552769525,49.0085
1315552829525,49.0801
1315552889525,49.1090
1315552949525,49.0613
1315553009525,49.0544
1315553069525,49.1152
1315553129525,49.0347
1315553189525,49.1519
1315553249525,49.0083
1315553309525,49.0208
1315553369525,49.0730
1315553429525,48.9939
1315553489525,49.0132
1315553549525,48.9685
1315553609525,49.0188
1315553669525,48.8443
1315553729525,48.8648
1315553789525,48.9539
1315553849525,48.8948
1315553909525,48.7471
1315553969525,48.9922
1315554029525,49.0436
1315554089525,48.9616
1315554149525,48.9375
1315554209525,48.9779
1315554269525,49.0166
1315554329525,48.9355
1315554389525,49.1450
1315554449525,48.9742
1315554509525,49.0222
1315554569525,49.1156
1315554629525,49.1352
1315554689525,49.1613
1315554749525,49.1583
1315554809525,48.9421
1315554869525,48.9343
1315554929525,48.9976
1315554989525,49.0391
1315555049525,49.0136
1315555109525,48.9535
1315555169525,49.1715
1315555229535,49.0862
1315555289535,49.0750
1315555349535,48.9800
1315555409535,48.9620
1315555469535,49.1122
1315555529535,48.9925
1315555589535,49.1265
1315555649535,49.0161
1315555709535,48.9999
1315555769535,49.0600
1315555829535,49.0073
1315555889535,49.0852
1315555949535,48.9702
1315556009535,49.1474
1315556069535,49.1288
1315556129535,49.0873
1315556189535,49.1998
1315556249535,49.1186
1315556309535,49.0906
1315556369535,48.9700
1315556429535,49.0418
1315556489535,49.0666
1315556549535,49.1103
1315556609535,48.9933
1315556669535,49.0861
1315556729535,49.0554
1315556789535,49.1185
1315556849535,49.0271
1315556909535,49.0539
1315556969535,49.0135
1315557029535,49.1738
1315557089535,49.1410
1315557149535,49.0446
1315557209535,49.2420
1315557269535,49.1151
1315557329535,49.1432
1315557389535,49.1701
1315557449535,49.2028
1315557509535,49.2245
1315557569535,49.2962
1315557629535,49.1764
1315557689535,49.1234
1315557749535,49.2027
1315557809535,49.0307
1315557869535,49.1225
1315557929535,49.0741
1315557989535,49.0363
1315558049535,49.2268
1315558109535,49.1445
1315558169535,49.0789
1315558229535,49.0502
1315558289535,49.0577
1315558349535,49.1215
1315558409535,48.9464
1315558469535,49.6863
1315558529535,49.1933
1315558589535,49.1039
1315558649535,49.0792
1315558709535,49.2171
1315558769535,49.2417
1315558829545,49.1587
1315558889545,49.1097
1315558949545,49.1528
1315559009545,49.2997
1315559069545,49.3563
1315559129545,49.1763
1315559189545,49.2695
1315559249545,49.2771
1315559309545,49.3092
1315559369545,49.1415
1315559429545,49.2124
1315559489545,49.2759
1315559549545,49.3355
1315559609545,49.2495
1315559669545,49.3431
1315559729545,49.1918
1315559789545,49.1494
1315559849545,49.3968
1315559909545,49.3721
1315559969545,49.2501
1315560029545,49.2587
1315560089545,49.3439
1315560149545,49.2494
1315560209545,49.4373
1315560269545,49.3734
1315560329545,49.2939
1315560389545,49.2761
1315560449545,49.2323
1315560509545,49.2775
1315560569545,49.2420
1315560629545,49.1988
1315560689545,49.2477
1315560749545,49.3555
1315560809545,49.1679
1315560869545,49.2480
1315560929545,49.2287
1315560989545,49.2024
1315561049545,49.2078
1315561109545,49.3323
1315561169545,49.2247
1315561229545,49.3478
1315561289545,49.1639
1315561349545,49.2780
1315561409545,49.3220
1315561469545,49.2487
1315561529545,49.2926
1315561589545,49.2383
1315561649545,49.3985
1315561709545,49.2381
1315561769545,49.4240
1315561829545,49.5430
1315561889545,49.1843
1315561949545,49.3511
1315562009545,49.4965
1315562069545,49.3714
1315562129545,49.4428
1315562189545,49.3443
1315562249545,49.3747
1315562309545,49.3756
1315562369545,49.2847
1315562429555,49.4126
1315562489555,49.3677
1315562549555,49.3306
1315562609555,49.3218
1315562669555,49.3643
1315562729555,49.4047
1315562789555,49.3848
1315562849555,49.4186
1315562909555,49.3006
1315562969555,49.4856
1315563029555,49.2983
1315563089555,49.4062
1315563149555,49.3506
1315563209555,49.3821
1315563269555,49.4156
1315563329555,49.4147
1315563389555,49.4795
1315563449555,49.4583
1315563509555,49.4071
1315563569555,49.4055
1315563629555,49.4878
1315563689555,49.4268
1315563749555,49.4968
1315563809555,49.3372
1315563869555,49.5625
1315563929555,49.4069
1315563989555,49.3958
1315564049555,49.4232
1315564109555,49.4243
1315564169555,49.4414
1315564229555,49.4751
1315564289555,49.5637
1315564349555,49.5124
1315564409555,49.5410
1315564469555,49.5356
1315564529555,49.5686
1315564589555,49.6193
1315564649555,49.6069
1315564709555,49.5825
1315564769555,49.6109
1315564829555,49.5407
1315564889555,49.6156
1315564949555,49.6711
1315565009555,49.6171
1315565069555,49.5822
1315565129555,49.5542
1315565189555,49.6123
1315565249555,49.5714
1315565309555,49.7285
1315565369555,49.6620
1315565429555,49.5951
1315565489555,49.6117
1315565549555,49.6147
1315565609555,49.7313
1315565669555,49.6270
1315565729555,49.7343
1315565789555,49.5602
1315565849555,49.7333
1315565909555,49.6356
1315565969555,49.6674
1315566029566,49.6448
1315566089566,49.7281
1315566149566,49.6884
1315566209566,49.7020
1315566269566,49.5841
1315566329566,49.6514
1315566389566,49.6891
1315566449566,49.6052
1315566509566,49.6246
1315566569566,49.7529
1315566629566,49.7315
1315566689566,49.7796
1315566749566,49.7620
1315566809566,49.6810
1315566869566,49.7072
1315566929566,49.8148
1315566989566,49.6412
1315567049566,49.6551
1315567109566,49.6420
1315567169566,49.5678
1315567229566,49.7817
1315567289566,49.5867
1315567349566,49.7515
1315567409566,49.7612
1315567469566,49.7286
1315567529566,49.6775
1315567589566,49.7362
1315567649566,49.7500
1315567709566,49.7649
1315567769566,49.7632
1315567829566,49.8654
1315567889566,49.7385
1315567949566,49.8932
1315568009566,49.7139
1315568069566,49.6593
1315568129566,49.7081
1315568189566,49.7518
1315568249566,49.7765
1315568309566,49.8317
1315568369566,49.8132
1315568429566,49.7819
1315568489566,49.8166
1315568549566,49.6810
1315568609566,49.7026
1315568669566,49.7593
1315568729566,50.0022
1315568789566,49.9315
1315568849566,49.8137
1315568909566,49.8143
1315568969566,49.7895
1315569029566,49.9217
1315569089566,49.9099
1315569149566,49.8869
1315569209566,49.8208
1315569269566,49.7742
1315569329566,49.7989
1315569389566,49.8086
1315569449566,49.9554
1315569509566,49.8352
1315569569566,49.8686
1315569629576,49.7308
1315569689576,49.9043
1315569749576,49.9144
1315569809576,49.7865
1315569869576,49.8421
1315569929576,49.9270
1315569989576,49.8662
1315570049576,49.8268
1315570109576,49.9775
1315570169576,49.9119
1315570229576,49.8659
1315570289576,50.0286
1315570349576,49.9915
1315570409576,49.8729
1315570469576,49.9274
1315570529576,49.7956
1315570589576,50.0359
1315570649576,49.8519
1315570709576,49.9501
1315570769576,49.8468
1315570829576,49.8374
1315570889576,50.0232
1315570949576,49.8655
1315571009576,49.7881
1315571069576,49.9307
1315571129576,49.9174
1315571189576,49.8945
1315571249576,49.8287
1315571309576,49.8794
1315571369576,50.0291
1315571429576,49.9299
1315571489576,49.8190
1315571549576,49.8292
1315571609576,49.8107
1315571669576,49.9859
1315571729576,49.7786
1315571789576,49.9071
1315571849576,49.8632
1315571909576,49.8320
1315571969576,50.0511
1315572029576,49.9090
1315572089576,49.8090
1315572149576,50.4181
1315572209576,50.2360
1315572269576,50.1921
1315572329576,50.1820
1315572389576,50.3107
1315572449576,50.3115
1315572509576,50.2433
1315572569576,50.1326
1315572629576,50.0816
1315572689576,50.1669
1315572749576,50.1247
1315572809576,50.0619
1315572869576,50.1418
1315572929576,50.2828
1315572989576,50.2527
1315573049576,49.9705
1315573109576,49.9858
1315573169576,49.9886
1315573229617,50.1417
1315573289617,50.0609
1315573349616,50.1455
1315573409616,50.1272
1315573469616,50.1069
1315573529617,50.1190
1315573589617,50.1229
1315573649617,49.9132
1315573709617,49.9172
1315573769617,49.9045
1315573829617,50.0329
1315573889617,49.8878
1315573949617,49.8729
1315574009617,50.0845
1315574069617,50.1911
1315574129617,50.1281
1315574189617,50.0641
1315574249617,50.0605
1315574309617,49.9573
1315574369617,50.0687
1315574429617,50.2269
1315574489617,50.0522
1315574549617,50.0984
1315574609617,50.2025
1315574669617,50.3176
1315574729616,50.1762
1315574789616,50.2306
1315574849616,50.2622
1315574909617,50.3801
1315574969617,50.2041
1315575029617,50.1925
1315575089617,50.3398
1315575149617,50.3466
1315575209617,50.2512
1315575269617,50.2108
1315575329617,50.3668
1315575389617,50.3737
1315575449617,50.4967
1315575509617,50.4618
1315575569617,50.4485
1315575629617,50.5939
1315575689617,50.5624
1315575749617,50.6489
1315575809617,50.6623
1315575869617,50.7422
1315575929617,50.8117
1315575989617,50.9601
1315576049616,50.9370
1315576109616,50.9071
1315576169616,51.1666
1315576229617,50.9429
1315576289617,51.0952
1315576349617,51.1375
1315576409617,50.8656
1315576469617,51.0179
1315576529617,51.1408
1315576589617,51.0582
1315576649617,50.9250
1315576709617,51.1503
1315576769617,51.0151
1315576829628,51.0706
1315576889628,51.0233
1315576949628,50.9035
1315577009628,50.8892
1315577069628,50.7637
1315577129628,50.7000
1315577189628,50.8242
1315577249628,50.6536
1315577309628,50.6606
1315577369628,50.5924
1315577429628,50.5483
1315577489628,50.5673
1315577549628,50.6463
1315577609628,50.6270
1315577669628,50.5519
1315577729628,50.4950
1315577789628,50.5140
1315577849628,50.5402
1315577909628,50.5759
1315577969628,50.4739
1315578029628,50.4661
1315578089628,50.5457
1315578149628,50.5327
1315578209628,50.7203
1315578269628,50.7118
1315578329628,50.4599
1315578389628,50.4210
1315578449628,50.4051
1315578509628,50.3833
1315578569628,50.5369
1315578629628,50.3172
1315578689628,50.4174
1315578749628,50.4046
1315578809628,50.3907
1315578869628,50.3236
1315578929628,50.3316
1315578989628,50.2511
1315579049628,50.1586
1315579109628,50.2268
1315579169628,50.1694
1315579229628,50.0809
1315579289628,50.1210
1315579349628,50.0530
1315579409628,50.1723
1315579469628,50.1287
1315579529628,50.1900
1315579589628,49.9710
1315579649628,50.0917
1315579709628,50.0240
1315579769628,50.0062
1315579829628,50.0321
1315579889628,49.9835
1315579949628,50.0215
1315580009628,49.9818
1315580069628,49.9114
1315580129628,49.7957
1315580189628,49.9121
1315580249628,49.9720
1315580309628,49.9544
1315580369628,49.8857
1315580429641,49.9934
1315580489641,49.8333
1315580549641,49.9486
1315580609641,49.9919
1315580669641,49.9150
1315580729641,49.8568
1315580789641,50.0889
1315580849641,49.9060
1315580909641,49.9615
1315580969641,49.9237
1315581029641,50.0054
1315581089641,49.9893
1315581149641,50.0406
1315581209641,49.8384
1315581269641,49.9499
1315581329641,49.8253
1315581389641,50.0526
1315581449641,49.9263
1315581509641,50.0037
1315581569641,49.9930
1315581629641,49.8911
1315581689641,49.9816
1315581749641,49.9049
1315581809641,49.9765
1315581869641,49.8647
1315581929641,49.9004
1315581989641,49.9787
1315582049641,49.9587
1315582109641,49.9667
1315582169641,50.1237
1315582229641,49.9803
1315582289641,50.0154
1315582349641,50.0004
1315582409641,49.9411
1315582469641,50.1032
1315582529641,50.0443
1315582589641,49.8804
1315582649641,49.9755
1315582709641,50.0736
1315582769641,49.8905
1315582829641,49.8038
1315582889641,49.8454
1315582949641,49.9936
1315583009641,50.0005
1315583069641,49.9502
1315583129641,50.1243
1315583189641,50.0225
1315583249641,50.0373
1315583309641,49.8419
1315583369641,49.7302
1315583429641,49.9014
1315583489641,50.0217
1315583549641,49.9342
1315583609641,49.9319
1315583669641,49.8713
1315583729641,49.8271
1315583789641,49.9491
1315583849641,49.8519
1315583909641,49.8517
1315583969641,49.8657
1315584029654,49.8462
1315584089654,49.9635
1315584149654,49.9625
1315584209654,49.9005
1315584269654,49.8000
1315584329654,49.8964
1315584389654,49.8876
1315584449654,49.8920
1315584509654,49.9964
1315584569654,49.9774
1315584629654,50.0799
1315584689654,49.8603
1315585229654,49.7412
1315585289654,49.7685
1315585349654,49.9659
1315585409654,49.7905
1315585469654,49.7543
1315585529654,49.8363
1315585589654,49.5967
1315585649654,49.7205
1315585709654,49.7342
1315585769654,49.8471
1315585829654,49.8327
1315585889654,49.8409
1315585949654,49.7741
1315586009654,49.7086
1315586069654,49.9258
1315586129654,49.6920
1315586189654,49.7659
1315586249654,49.7923
1315586309654,49.8145
1315586369654,49.8005
1315586429654,49.7771
1315586489654,49.8520
1315586549654,49.7590
1315586609654,49.7202
1315586669654,49.7628
1315586729654,49.6649
1315586789654,49.9189
1315586849654,49.9011
1315586909654,49.8889
1315586969654,49.6884
1315587029654,49.8640
1315587089654,50.1826
1315587149654,49.7547
1315587209654,50.0508
1315587269654,49.9323
1315587329654,49.9187
1315587389654,49.7297
1315587449654,49.7118
1315587509654,49.8111
1315587569654,49.8908
1315587629668,49.8132
1315587689668,49.8660
1315587749668,49.8210
1315587809668,49.9250
1315587869668,49.8211
1315587929668,49.7703
1315587989668,49.8038
1315588049668,49.9526
1315588109668,49.9316
1315588169668,49.7882
1315588229668,49.7941
1315588289668,49.7913
1315588349668,49.7339
1315588409668,49.9338
1315588469668,49.8613
1315588529668,49.8698
1315588589668,49.9257
1315588649668,49.8460
1315588709668,49.9421
1315588769668,49.9661
1315588829668,49.8816
1315588889668,50.0107
1315588949668,50.0234
1315589009668,50.1674
1315589069668,49.9327
1315589129668,50.0071
1315589189668,50.0715
1315589249668,50.0095
1315589309668,50.1033
1315589369668,49.9950
1315589429668,50.0027
1315589489668,50.0579
1315589549668,50.1022
1315589609668,50.0529
1315589669668,50.0863
1315589729668,50.0876
1315589789668,50.1125
1315589849668,50.0396
1315589909668,50.1490
1315589969668,50.1383
1315590029668,50.1940
1315590089668,50.2484
1315590149668,50.1246
1315590209668,50.1066
1315590269668,50.0991
1315590329668,50.0760
1315590389668,49.9540
1315590449668,50.0743
1315590509668,50.0366
1315590569668,50.0363
1315590629668,50.0215
1315590689668,50.1090
1315590749668,49.9615
1315590809668,49.9476
1315590869668,50.0361
1315590929668,49.8890
1315590989668,49.9778
1315591049668,49.9643
1315591109668,49.9903
1315591169668,49.9345
1315591229682,50.0089
1315591289682,49.9231
1315591349682,49.8993
1315591409682,50.0036
1315591469682,49.9353
1315591529682,49.8962
1315591589682,49.9010
1315591649682,49.9492
1315591709682,49.9055
1315591769682,49.9907
1315591829682,50.0458
1315591889682,49.9220
1315591949682,50.0688
1315592009682,50.1290
1315592069682,50.0274
1315592129682,50.0382
1315592189682,49.9756
1315592249682,50.0000